Location: Lango�lan
(48.1202°N, 3.2340°W)
Time: 04:53:48
(UTC+00:00)

Cosmos 468 Rocket - Pass Details

Date: 23 October 2019
Orbit: 745 x 779 km, 74.0° (Epoch: 18 November)

Event Time Altitude Azimuth Distance (km) Brightness Sun altitude
Rises 05:05:05 0° 336° (NNW) 3,217 7.0 -17.1°
Reaches altitude 10° 05:07:28 10° 335° (NNW) 2,284 6.2 -16.7°
Maximum altitude 05:12:38 81° 250° (WSW) 764 3.9 -15.8°
Drops below altitude 10° 05:17:45 10° 163° (SSE) 2,256 6.6 -15.0°
Sets 05:20:05 0° 163° (SSE) 3,174 7.4 -14.6°
